#timestamp,LO_Frequency,Hit,StdDev 
1507230015.1,286046977.5,N
1507230016.0,286046977.5,N
1507230035.8,286046978.0,N
1507230055.6,286046979.9,N
1507230075.5,286046980.4,N
1507230095.3,286046978.7,N
1507230115.1,286046979.4,N
1507230135.8,286046979.6,N
1507230155.7,286046981.9,N
1507230175.5,286046985.2,N
1507230195.3,286046982.6,N
1507230215.2,286046980.7,Y
1507230235.0,286046995.1,P
1507230235.9,286046995.1,N
1507230255.7,286046998.9,N
1507230275.6,286046997.6,N
1507230295.4,286046996.7,N
1507230315.2,286046996.6,N
1507230335.1,286046993.7,N
1507230336.0,286046993.7,N
1507230355.8,286046993.6,N
1507230375.6,286046993.6,N
1507230395.5,286046996.4,N
1507230415.3,286046993.5,N
1507230435.1,286046995.9,N
1507230455.9,286046996.9,N
1507230475.7,286046999.4,N
1507230495.5,286047000.0,N
1507230515.3,286047000.7,N
1507230535.2,286047001.1,N
1507230555.0,286047002.1,N
1507230555.9,286047002.1,N
1507230575.7,286046999.7,N
1507230595.6,286047003.4,N
1507230615.4,286047005.0,N
1507230635.2,286047005.4,N
1507230655.1,286047005.4,N
1507230656.0,286047005.4,N
1507230675.8,286047003.8,N
1507230695.6,286047003.7,N
1507230715.5,286047002.1,N
1507230735.3,286047004.1,N
1507230755.1,286047005.5,N
1507230775.9,286047001.7,N
1507230795.7,286047005.3,N
1507230815.5,286047003.3,N
1507230835.3,286047001.9,N
1507230855.2,286047001.3,N
1507230875.0,286047003.7,N
1507230875.9,286047003.7,N
1507230895.7,286047003.8,N
1507230915.6,286047004.3,N
1507230935.4,286047002.0,N
1507230955.2,286047001.5,N
1507230975.1,286047002.0,N
1507230976.0,286047002.0,N
1507230995.8,286047002.7,N
1507231015.6,286046999.8,N
1507231035.5,286046998.6,N
1507231055.3,286047001.1,N
1507231075.1,286046999.2,N
1507231095.9,286047000.0,N
1507231115.7,286047002.1,N
1507231135.5,286047001.9,N
1507231155.4,286047003.1,N
1507231175.2,286047005.3,N
1507231195.0,286047007.6,Y
1507231195.9,286047007.6,P
1507231215.8,286047001.3,N
1507231235.6,286046998.5,N
1507231255.4,286046999.6,N
1507231275.3,286046998.0,N
1507231295.1,286047001.9,N
1507231296.0,286047001.9,N
1507231315.8,286047007.2,N
1507231335.7,286047015.2,Y
1507231355.5,286047016.6,P
1507231375.3,286047014.5,N
1507231395.1,286047015.7,N
1507231415.9,286047017.9,Y
1507231435.7,286047003.1,P
1507231455.6,286046998.6,N
1507231475.4,286047003.2,N
1507231495.2,286047002.5,N
1507231515.0,286047000.8,N
1507231516.0,286047000.8,N
1507231535.8,286046996.0,N
1507231555.6,286046988.9,N
1507231575.4,286046987.7,N
1507231595.3,286046989.1,N
1507231615.1,286046992.6,N
1507231635.8,286046992.4,N
1507231655.7,286046994.0,N
1507231675.5,286046992.1,N
1507231695.3,286046992.1,N
1507231715.2,286046989.4,N
1507231735.9,286046991.2,N
1507231755.7,286046989.1,N
1507231775.6,286046989.7,N
1507231795.4,286046994.3,N
1507231815.2,286046995.1,N
1507231835.1,286046999.5,N
1507231836.0,286046999.5,N
1507231855.8,286046996.8,N
1507231875.6,286046999.9,N
1507231895.4,286046999.1,N
1507231915.3,286046998.5,N
1507231935.1,286046993.8,N
1507231955.8,286046998.3,N
1507231975.7,286046994.7,N
1507231995.5,286046994.8,N
1507232015.3,286046992.1,N
1507232035.2,286046991.2,N
1507232055.9,286046988.6,N
1507232075.7,286046986.1,Y
1507232095.6,286046995.7,P
1507232115.4,286046993.4,P
1507232135.2,286046990.4,P
1507232155.1,286046988.5,Y
1507232156.0,286046988.5,P
1507232175.8,286046994.2,N
1507232195.6,286046995.2,N
1507232215.5,286046993.7,N
1507232235.3,286046995.7,N
1507232255.1,286046998.0,N
1507232275.9,286046993.4,N
1507232295.7,286046993.4,N
1507232315.5,286046992.5,Y
1507232335.4,286046995.4,P
1507232355.2,286046997.4,P
1507232375.0,286046995.5,P
1507232375.9,286046995.5,Y
1507232395.8,286047002.1,P
1507232415.6,286047001.4,N
1507232435.4,286047000.0,N
1507232455.3,286047000.4,N
1507232475.1,286047004.4,N
1507232476.0,286047004.4,N
1507232495.8,286047000.3,N
1507232515.7,286047000.3,N
1507232535.5,286047000.3,N
1507232555.3,286047003.2,N
1507232575.2,286047000.2,N
1507232595.9,286047000.3,N
1507232615.7,286046999.8,N
1507232635.5,286047000.2,N
1507232655.4,286046999.8,N
1507232675.2,286047001.5,N
1507232695.0,286047004.2,N
1507232695.9,286047004.2,N
1507232715.8,286047003.5,N
1507232735.6,286047002.5,N
1507232755.4,286047003.4,N
1507232775.3,286047003.3,N
1507232795.1,286047004.5,N
1507232796.0,286047004.5,N
1507232815.8,286047006.9,Y
1507232835.7,286047005.5,P
1507232855.5,286047004.5,N
1507232875.3,286047005.5,P
1507232895.2,286047005.5,Y
1507232915.9,286047000.9,P
1507232935.7,286047000.1,N
1507232955.6,286046999.9,N
1507232975.4,286047001.6,N
1507232995.2,286046999.8,N
1507233015.1,286047002.2,N
1507233016.0,286047002.2,N
1507233035.8,286047004.8,Y
1507233055.6,286047003.4,P
1507233075.5,286046999.8,N
1507233095.3,286047002.8,N
1507233115.1,286046998.3,N
1507233135.9,286046999.4,N
1507233155.7,286047000.1,N
1507233175.5,286047004.0,N
1507233195.3,286047001.5,N
1507233215.2,286047004.3,N
1507233235.0,286047002.7,N
1507233235.9,286047002.7,N
1507233255.7,286047000.8,N
1507233275.6,286047000.3,N
1507233295.4,286047004.0,N
1507233315.2,286047003.7,N
1507233335.1,286047003.6,N
1507233336.0,286047003.6,N
1507233355.8,286047003.2,N
1507233375.6,286047003.6,N
1507233395.5,286047001.7,N
1507233415.3,286047000.9,N
1507233435.1,286046999.4,N
1507233455.9,286047000.5,N
1507233475.7,286047004.2,N
1507233495.5,286047006.0,Y
1507233515.4,286047004.3,P
1507233535.2,286047003.3,N
1507233555.0,286047004.3,P
1507233555.9,286047004.3,Y
1507233575.8,286047000.1,P
1507233595.6,286047002.3,N
